Time,TemperatureF,DewpointF,PressureIn,WindDirection,WindDirectionDegrees,WindSpeedMPH,WindSpeedGustMPH,Humidity,HourlyPrecipIn,Conditions,Clouds,dailyrainin,SoftwareType,DateUTC
2013-04-07 00:03:00,53.0,17.0,29.93,SSE,153,8.0,17.0,24,0.00,,,0.00,,2013-04-07 04:03:00,
2013-04-07 00:15:00,53.0,17.0,29.93,SSE,153,8.0,17.0,24,0.00,,,0.00,,2013-04-07 04:15:00,
2013-04-07 00:23:00,53.0,17.0,29.92,SSE,150,13.0,20.0,24,0.00,,,0.00,,2013-04-07 04:23:00,
2013-04-07 00:32:00,53.0,17.0,29.91,SSE,154,8.0,17.0,24,0.00,,,0.00,,2013-04-07 04:32:00,
2013-04-07 00:43:00,53.0,17.0,29.91,SSE,154,8.0,17.0,24,0.00,,,0.00,,2013-04-07 04:43:00,
2013-04-07 00:53:00,53.0,18.0,29.91,SSE,153,10.0,18.0,25,0.00,,,0.00,,2013-04-07 04:53:00,
2013-04-07 01:02:00,53.0,17.0,29.90,SSE,155,10.0,21.0,24,0.00,,,0.00,,2013-04-07 05:02:00,
2013-04-07 01:12:00,53.0,17.0,29.90,SSE,155,10.0,21.0,24,0.00,,,0.00,,2013-04-07 05:12:00,
2013-04-07 01:23:00,53.0,18.0,29.89,SSE,160,9.0,20.0,25,0.00,,,0.00,,2013-04-07 05:23:00,
2013-04-07 01:33:00,53.0,17.0,29.88,SSE,157,11.0,17.0,24,0.00,,,0.00,,2013-04-07 05:33:00,
2013-04-07 01:43:00,53.0,17.0,29.88,SSE,157,11.0,17.0,24,0.00,,,0.00,,2013-04-07 05:43:00,
2013-04-07 01:53:00,53.0,18.0,29.88,SSE,156,9.0,18.0,25,0.00,,,0.00,,2013-04-07 05:53:00,
2013-04-07 02:01:00,53.0,18.0,29.86,SE,143,11.0,17.0,25,0.00,,,0.00,,2013-04-07 06:01:00,
2013-04-07 02:02:00,53.0,18.0,29.87,SSE,159,8.0,20.0,25,0.00,,,0.00,,2013-04-07 06:02:00,
2013-04-07 02:12:00,53.0,18.0,29.87,SSE,159,8.0,20.0,25,0.00,,,0.00,,2013-04-07 06:12:00,
2013-04-07 02:22:00,53.0,18.0,29.86,SE,143,11.0,17.0,25,0.00,,,0.00,,2013-04-07 06:22:00,
2013-04-07 02:32:00,53.0,18.0,29.86,SE,143,11.0,17.0,25,0.00,,,0.00,,2013-04-07 06:32:00,
2013-04-07 02:43:00,53.0,18.0,29.86,SE,143,11.0,17.0,25,0.00,,,0.00,,2013-04-07 06:43:00,
2013-04-07 02:53:00,53.0,18.0,29.86,SE,143,11.0,17.0,25,0.00,,,0.00,,2013-04-07 06:53:00,
2013-04-07 04:23:00,57.0,25.0,29.81,SSE,147,7.0,19.0,29,0.00,,,0.00,,2013-04-07 08:23:00,
2013-04-07 04:33:00,57.0,25.0,29.81,SSE,147,7.0,19.0,29,0.00,,,0.00,,2013-04-07 08:33:00,
2013-04-07 04:43:00,57.0,25.0,29.81,SSE,147,7.0,19.0,29,0.00,,,0.00,,2013-04-07 08:43:00,
2013-04-07 04:53:00,57.0,25.0,29.81,SSE,147,7.0,19.0,29,0.00,,,0.00,,2013-04-07 08:53:00,
2013-04-07 05:02:00,59.0,30.0,29.80,South,191,9.0,23.0,33,0.00,,,0.00,,2013-04-07 09:02:00,
2013-04-07 05:13:00,59.0,30.0,29.80,South,191,9.0,23.0,33,0.00,,,0.00,,2013-04-07 09:13:00,
2013-04-07 05:23:00,59.0,31.0,29.79,SW,236,7.0,16.0,34,0.00,,,0.00,,2013-04-07 09:23:00,
2013-04-07 05:43:00,59.0,31.0,29.78,SSW,205,8.0,23.0,35,0.00,,,0.00,,2013-04-07 09:43:00,
2013-04-07 05:54:00,58.0,31.0,29.78,SSE,163,10.0,16.0,36,0.00,,,0.00,,2013-04-07 09:54:00,
2013-04-07 06:04:00,58.0,32.0,29.78,SE,144,7.0,26.0,37,0.00,,,0.00,,2013-04-07 10:04:00,
2013-04-07 06:14:00,58.0,32.0,29.78,SE,144,7.0,26.0,37,0.00,,,0.00,,2013-04-07 10:14:00,
2013-04-07 06:23:00,58.0,33.0,29.77,SSE,151,8.0,22.0,38,0.00,,,0.00,,2013-04-07 10:23:00,
2013-04-07 06:33:00,58.0,33.0,29.77,SSE,151,8.0,22.0,38,0.00,,,0.00,,2013-04-07 10:33:00,
2013-04-07 06:43:00,58.0,33.0,29.77,SSE,151,8.0,22.0,38,0.00,,,0.00,,2013-04-07 10:43:00,
2013-04-07 06:54:00,58.0,34.0,29.77,SSE,166,7.0,18.0,40,0.00,,,0.00,,2013-04-07 10:54:00,
2013-04-07 07:03:00,58.0,34.0,29.76,SE,138,8.0,18.0,40,0.00,,,0.00,,2013-04-07 11:03:00,
2013-04-07 07:13:00,58.0,34.0,29.76,SE,138,8.0,18.0,40,0.00,,,0.00,,2013-04-07 11:13:00,
2013-04-07 07:23:00,58.0,34.0,29.76,South,170,11.0,24.0,41,0.00,,,0.00,,2013-04-07 11:23:00,
2013-04-07 07:33:00,58.0,35.0,29.76,SSW,199,10.0,20.0,42,0.00,,,0.00,,2013-04-07 11:33:00,
2013-04-07 07:43:00,58.0,35.0,29.76,SSW,199,10.0,20.0,42,0.00,,,0.00,,2013-04-07 11:43:00,
2013-04-07 07:53:00,58.0,35.0,29.76,SSE,167,6.0,17.0,42,0.00,,,0.00,,2013-04-07 11:53:00,
2013-04-07 08:03:00,58.0,36.0,29.76,SSE,158,10.0,20.0,43,0.00,,,0.00,,2013-04-07 12:03:00,
2013-04-07 08:12:00,58.0,36.0,29.76,SSE,158,10.0,20.0,43,0.00,,,0.00,,2013-04-07 12:12:00,
2013-04-07 08:23:00,58.0,36.0,29.77,South,176,5.0,15.0,44,0.00,,,0.00,,2013-04-07 12:23:00,
2013-04-07 08:34:00,58.0,36.0,29.77,South,184,6.0,19.0,44,0.00,,,0.00,,2013-04-07 12:34:00,
2013-04-07 08:43:00,58.0,36.0,29.77,South,184,6.0,19.0,44,0.00,,,0.00,,2013-04-07 12:43:00,
2013-04-07 08:54:00,58.0,37.0,29.76,South,186,8.0,16.0,45,0.00,,,0.00,,2013-04-07 12:54:00,
2013-04-07 09:04:00,59.0,38.0,29.76,SSW,201,4.0,17.0,45,0.00,,,0.00,,2013-04-07 13:04:00,
2013-04-07 09:13:00,59.0,38.0,29.76,SSW,201,4.0,17.0,45,0.00,,,0.00,,2013-04-07 13:13:00,
2013-04-07 09:23:00,59.0,38.0,29.76,SSW,208,8.0,16.0,46,0.00,,,0.00,,2013-04-07 13:23:00,
2013-04-07 09:33:00,60.0,39.0,29.76,SW,228,8.0,27.0,46,0.00,,,0.00,,2013-04-07 13:33:00,
2013-04-07 09:43:00,60.0,39.0,29.76,SW,228,8.0,27.0,46,0.00,,,0.00,,2013-04-07 13:43:00,
2013-04-07 09:53:00,61.0,40.0,29.76,WSW,243,10.0,25.0,46,0.00,,,0.00,,2013-04-07 13:53:00,
2013-04-07 10:02:00,61.0,41.0,29.76,SW,217,8.0,16.0,48,0.00,,,0.00,,2013-04-07 14:02:00,
2013-04-07 10:12:00,61.0,41.0,29.76,SW,217,8.0,16.0,48,0.00,,,0.00,,2013-04-07 14:12:00,
2013-04-07 10:23:00,62.0,43.0,29.76,SW,221,13.0,25.0,50,0.00,,,0.00,,2013-04-07 14:23:00,
2013-04-07 10:33:00,62.0,43.0,29.76,SW,221,13.0,25.0,50,0.00,,,0.00,,2013-04-07 14:33:00,
2013-04-07 10:44:00,62.0,43.0,29.76,SW,221,13.0,25.0,50,0.00,,,0.00,,2013-04-07 14:44:00,
2013-04-07 10:55:00,63.0,44.0,29.77,SSW,199,12.0,20.0,49,0.00,,,0.00,,2013-04-07 14:55:00,
2013-04-07 11:03:00,64.0,44.0,29.77,WSW,241,7.0,22.0,48,0.00,,,0.00,,2013-04-07 15:03:00,
2013-04-07 11:13:00,64.0,44.0,29.77,WSW,241,7.0,22.0,48,0.00,,,0.00,,2013-04-07 15:13:00,
2013-04-07 11:22:00,63.0,43.0,29.78,SW,227,9.0,24.0,48,0.00,,,0.00,,2013-04-07 15:22:00,
2013-04-07 11:35:00,64.0,43.0,29.78,WSW,258,11.0,23.0,47,0.00,,,0.00,,2013-04-07 15:35:00,
2013-04-07 11:45:00,64.0,43.0,29.78,WSW,258,11.0,23.0,47,0.00,,,0.00,,2013-04-07 15:45:00,
2013-04-07 11:55:00,65.0,44.0,29.78,WSW,243,9.0,19.0,46,0.00,,,0.00,,2013-04-07 15:55:00,
2013-04-07 12:04:00,65.0,44.0,29.79,WSW,243,12.0,24.0,46,0.00,,,0.00,,2013-04-07 16:04:00,
2013-04-07 12:14:00,65.0,44.0,29.79,WSW,243,12.0,24.0,46,0.00,,,0.00,,2013-04-07 16:14:00,
2013-04-07 12:25:00,65.0,44.0,29.79,WSW,243,12.0,24.0,46,0.00,,,0.00,,2013-04-07 16:25:00,
2013-04-07 12:33:00,66.0,45.0,29.79,WSW,242,10.0,19.0,46,0.00,,,0.00,,2013-04-07 16:33:00,
2013-04-07 12:43:00,66.0,45.0,29.79,WSW,242,10.0,19.0,46,0.00,,,0.00,,2013-04-07 16:43:00,
2013-04-07 12:54:00,66.0,44.0,29.79,SW,215,10.0,21.0,45,0.00,,,0.00,,2013-04-07 16:54:00,
2013-04-07 13:05:00,64.0,44.0,29.80,WNW,285,9.0,17.0,49,0.00,,,0.00,,2013-04-07 17:05:00,
2013-04-07 13:13:00,64.0,44.0,29.80,WNW,285,9.0,17.0,49,0.00,,,0.00,,2013-04-07 17:13:00,
2013-04-07 13:23:00,61.0,45.0,29.81,SSW,203,14.0,24.0,56,0.00,,,0.00,,2013-04-07 17:23:00,
2013-04-07 13:33:00,59.0,46.0,29.82,WSW,250,8.0,20.0,61,0.00,,,0.00,,2013-04-07 17:33:00,
2013-04-07 13:43:00,59.0,46.0,29.82,WSW,250,8.0,20.0,61,0.00,,,0.00,,2013-04-07 17:43:00,
2013-04-07 13:54:00,58.0,45.0,29.83,West,281,9.0,17.0,63,0.00,,,0.00,,2013-04-07 17:54:00,
2013-04-07 14:03:00,58.0,45.0,29.83,West,281,9.0,17.0,63,0.00,,,0.00,,2013-04-07 18:03:00,
2013-04-07 14:14:00,58.0,45.0,29.83,West,281,9.0,17.0,63,0.00,,,0.00,,2013-04-07 18:14:00,
2013-04-07 14:23:00,57.0,45.0,29.84,WNW,302,9.0,17.0,65,0.00,,,0.00,,2013-04-07 18:23:00,
2013-04-07 14:33:00,56.0,45.0,29.85,WSW,248,8.0,18.0,67,0.00,,,0.00,,2013-04-07 18:33:00,
2013-04-07 14:44:00,56.0,45.0,29.85,WSW,248,8.0,18.0,67,0.00,,,0.00,,2013-04-07 18:44:00,
2013-04-07 14:53:00,56.0,45.0,29.85,WSW,255,9.0,15.0,66,0.00,,,0.00,,2013-04-07 18:53:00,
2013-04-07 15:03:00,55.0,44.0,29.86,NW,307,11.0,18.0,66,0.00,,,0.00,,2013-04-07 19:03:00,
2013-04-07 15:13:00,55.0,44.0,29.86,NW,307,11.0,18.0,66,0.00,,,0.00,,2013-04-07 19:13:00,
2013-04-07 15:23:00,54.0,44.0,29.86,WNW,300,9.0,18.0,69,0.00,,,0.00,,2013-04-07 19:23:00,
2013-04-07 15:33:00,54.0,44.0,29.87,WNW,285,9.0,18.0,68,0.00,,,0.00,,2013-04-07 19:33:00,
2013-04-07 15:43:00,54.0,44.0,29.87,WNW,285,9.0,18.0,68,0.00,,,0.00,,2013-04-07 19:43:00,
2013-04-07 15:55:00,55.0,44.0,29.87,WNW,294,10.0,19.0,66,0.00,,,0.00,,2013-04-07 19:55:00,
2013-04-07 16:03:00,54.0,43.0,29.88,West,271,12.0,18.0,66,0.00,,,0.00,,2013-04-07 20:03:00,
2013-04-07 16:13:00,54.0,43.0,29.88,West,271,12.0,18.0,66,0.00,,,0.00,,2013-04-07 20:13:00,
2013-04-07 16:23:00,54.0,43.0,29.88,WNW,300,10.0,18.0,66,0.00,,,0.00,,2013-04-07 20:23:00,
2013-04-07 16:33:00,53.0,42.0,29.88,WNW,299,10.0,15.0,65,0.00,,,0.00,,2013-04-07 20:33:00,
2013-04-07 16:43:00,53.0,42.0,29.88,WNW,299,10.0,15.0,65,0.00,,,0.00,,2013-04-07 20:43:00,
2013-04-07 16:55:00,54.0,43.0,29.89,West,273,10.0,18.0,65,0.00,,,0.00,,2013-04-07 20:55:00,
2013-04-07 17:03:00,53.0,42.0,29.90,WNW,291,11.0,16.0,66,0.00,,,0.00,,2013-04-07 21:03:00,
2013-04-07 17:13:00,53.0,42.0,29.90,WNW,291,11.0,16.0,66,0.00,,,0.00,,2013-04-07 21:13:00,
2013-04-07 17:23:00,54.0,42.0,29.91,NW,319,12.0,17.0,64,0.00,,,0.00,,2013-04-07 21:23:00,
2013-04-07 17:34:00,54.0,41.0,29.91,NW,307,10.0,18.0,62,0.00,,,0.00,,2013-04-07 21:34:00,
2013-04-07 17:44:00,54.0,41.0,29.91,NW,307,10.0,18.0,62,0.00,,,0.00,,2013-04-07 21:44:00,
2013-04-07 17:55:00,54.0,41.0,29.92,NW,313,8.0,13.0,61,0.00,,,0.00,,2013-04-07 21:55:00,
2013-04-07 18:04:00,54.0,41.0,29.92,WNW,284,6.0,13.0,62,0.00,,,0.00,,2013-04-07 22:04:00,
2013-04-07 18:15:00,54.0,41.0,29.92,WNW,284,6.0,13.0,62,0.00,,,0.00,,2013-04-07 22:15:00,
2013-04-07 18:24:00,54.0,40.0,29.93,North,360,9.0,14.0,60,0.00,,,0.00,,2013-04-07 22:24:00,
2013-04-07 18:34:00,54.0,40.0,29.93,NW,314,8.0,13.0,60,0.00,,,0.00,,2013-04-07 22:34:00,
2013-04-07 18:43:00,54.0,40.0,29.93,NW,314,8.0,13.0,60,0.00,,,0.00,,2013-04-07 22:43:00,
2013-04-07 18:54:00,54.0,40.0,29.93,NW,316,7.0,14.0,59,0.00,,,0.00,,2013-04-07 22:54:00,
2013-04-07 19:03:00,53.0,40.0,29.94,West,272,7.0,13.0,62,0.00,,,0.00,,2013-04-07 23:03:00,
2013-04-07 19:13:00,53.0,40.0,29.94,West,272,7.0,13.0,62,0.00,,,0.00,,2013-04-07 23:13:00,
2013-04-07 19:23:00,51.0,39.0,29.95,WNW,288,5.0,13.0,64,0.00,,,0.00,,2013-04-07 23:23:00,
2013-04-07 19:33:00,50.0,39.0,29.95,NNW,338,3.0,8.0,66,0.00,,,0.00,,2013-04-07 23:33:00,
2013-04-07 19:43:00,50.0,39.0,29.95,NNW,338,3.0,8.0,66,0.00,,,0.00,,2013-04-07 23:43:00,
2013-04-07 19:53:00,49.0,39.0,29.96,NW,309,4.0,8.0,67,0.00,,,0.00,,2013-04-07 23:53:00,
2013-04-07 20:02:00,48.0,38.0,29.96,NW,317,4.0,7.0,67,0.00,,,0.00,,2013-04-08 00:02:00,
2013-04-07 20:12:00,48.0,38.0,29.96,NW,317,4.0,7.0,67,0.00,,,0.00,,2013-04-08 00:12:00,
2013-04-07 20:23:00,48.0,38.0,29.97,NW,323,2.0,6.0,68,0.00,,,0.00,,2013-04-08 00:23:00,
2013-04-07 20:33:00,47.0,37.0,29.97,NNW,327,1.0,5.0,68,0.00,,,0.00,,2013-04-08 00:33:00,
2013-04-07 20:42:00,47.0,37.0,29.97,NNW,327,1.0,5.0,68,0.00,,,0.00,,2013-04-08 00:42:00,
2013-04-07 20:53:00,47.0,37.0,29.97,NW,325,1.0,6.0,68,0.00,,,0.00,,2013-04-08 00:53:00,
2013-04-07 21:03:00,46.0,36.0,29.98,NW,317,1.0,5.0,69,0.00,,,0.00,,2013-04-08 01:03:00,
2013-04-07 21:12:00,46.0,36.0,29.98,NW,317,1.0,5.0,69,0.00,,,0.00,,2013-04-08 01:12:00,
2013-04-07 21:23:00,46.0,36.0,29.98,NW,317,1.0,3.0,69,0.00,,,0.00,,2013-04-08 01:23:00,
2013-04-07 21:33:00,46.0,37.0,29.99,NW,317,0.0,2.0,70,0.00,,,0.00,,2013-04-08 01:33:00,
2013-04-07 21:44:00,46.0,37.0,29.99,NW,317,0.0,2.0,70,0.00,,,0.00,,2013-04-08 01:44:00,
2013-04-07 21:55:00,46.0,37.0,29.99,NW,317,0.0,3.0,70,0.00,,,0.00,,2013-04-08 01:55:00,
2013-04-07 22:03:00,45.0,36.0,29.99,NW,317,0.0,2.0,71,0.00,,,0.00,,2013-04-08 02:03:00,
2013-04-07 22:12:00,45.0,36.0,29.99,NW,317,0.0,2.0,71,0.00,,,0.00,,2013-04-08 02:12:00,
2013-04-07 22:22:00,45.0,37.0,30.00,NW,317,0.0,0.0,72,0.00,,,0.00,,2013-04-08 02:22:00,
2013-04-07 22:33:00,45.0,37.0,30.01,NW,317,0.0,1.0,73,0.00,,,0.00,,2013-04-08 02:33:00,
2013-04-07 22:47:00,45.0,37.0,30.01,NW,317,0.0,1.0,73,0.00,,,0.00,,2013-04-08 02:47:00,
2013-04-07 22:55:00,44.0,36.0,30.01,NW,317,0.0,2.0,73,0.00,,,0.00,,2013-04-08 02:55:00,
2013-04-07 23:08:00,44.0,36.0,30.01,NW,317,1.0,3.0,74,0.00,,,0.00,,2013-04-08 03:08:00,
2013-04-07 23:15:00,44.0,36.0,30.01,NW,317,1.0,3.0,74,0.00,,,0.00,,2013-04-08 03:15:00,
2013-04-07 23:25:00,44.0,37.0,30.01,NW,317,0.0,4.0,75,0.00,,,0.00,,2013-04-08 03:25:00,
2013-04-07 23:35:00,43.0,36.0,30.01,NW,317,1.0,3.0,76,0.00,,,0.00,,2013-04-08 03:35:00,
2013-04-07 23:47:00,43.0,36.0,30.01,NW,317,1.0,3.0,76,0.00,,,0.00,,2013-04-08 03:47:00,
2013-04-07 23:58:00,43.0,36.0,30.01,NNE,30,1.0,4.0,76,0.00,,,0.00,,2013-04-08 03:58:00,